This is the latest recevied weather packets stored in our database for station/object DG1ABU-11. If no packets are shown the sender has not sent any weather packets the latest 1 day(s).
| Time | Temp. | Humidity | Pressure | Rain* | Wind** | Luminosity | Snow |
|---|---|---|---|---|---|---|---|
| 1777745840 | 28.33° C | 24% | 1015.7 hPa | - | - | - | - |
| 1777744940 | 28.89° C | 23% | 1015.8 hPa | - | - | - | - |
| 1777744040 | 29.44° C | 22% | 1016 hPa | - | - | - | - |
| 1777743140 | 30° C | 21% | 1015.9 hPa | - | - | - | - |
| 1777742240 | 30.56° C | 20% | 1016.1 hPa | - | - | - | - |
| 1777741340 | 31.11° C | 20% | 1016.1 hPa | - | - | - | - |
| 1777740440 | 31.67° C | 19% | 1016.3 hPa | - | - | - | - |
| 1777739539 | 32.22° C | 18% | 1016.4 hPa | - | - | - | - |
| 1777738640 | 32.78° C | 19% | 1016.5 hPa | - | - | - | - |
| 1777737740 | 33.33° C | 17% | 1016.7 hPa | - | - | - | - |
| 1777736839 | 32.78° C | 17% | 1016.7 hPa | - | - | - | - |
| 1777735939 | 32.22° C | 17% | 1016.9 hPa | - | - | - | - |
| 1777735039 | 32.22° C | 16% | 1017 hPa | - | - | - | - |
| 1777734139 | 32.78° C | 16% | 1017.1 hPa | - | - | - | - |
| 1777733239 | 32.78° C | 16% | 1017.4 hPa | - | - | - | - |
| 1777732339 | 34.44° C | 15% | 1017.6 hPa | - | - | - | - |
| 1777731439 | 35.56° C | 15% | 1017.7 hPa | - | - | - | - |
| 1777730539 | 35° C | 15% | 1017.9 hPa | - | - | - | - |
| 1777729639 | 35.56° C | 14% | 1018.2 hPa | - | - | - | - |
| 1777728739 | 34.44° C | 14% | 1018.3 hPa | - | - | - | - |
| 1777726939 | 35.56° C | 14% | 1018.7 hPa | - | - | - | - |
| 1777726039 | 35° C | 16% | 1019 hPa | - | - | - | - |
| 1777725138 | 35.56° C | 15% | 1019.2 hPa | - | - | - | - |
| 1777724239 | 35° C | 16% | 1019.4 hPa | - | - | - | - |
| 1777723338 | 35° C | 17% | 1019.6 hPa | - | - | - | - |
* Rain since midnight (hover to see other rain measurements)
** Current wind speed in m/s (hover to see current wind gust speed)